owner,sensor,date,latitude,longitude,vertical_datum,wind_speed,wind_to_direction,wind_speed_of_gust,qcFlag 
LUMCON,ioos:station:LUMCON:102:1,2011-02-01T00:00:00Z,29.1870,-90.6093,0.0,3.6,130.0,5.7,'11111222,11111222,11111222' 
LUMCON,ioos:station:LUMCON:102:1,2011-02-01T01:00:00Z,29.1870,-90.6093,0.0,4.1,130.0,5.7,'11111222,11111222,11111222' 
LUMCON,ioos:station:LUMCON:102:1,2011-02-01T02:00:00Z,29.1870,-90.6093,0.0,4.6,120.0,6.2,'11111222,11111222,11111222' 
LUMCON,ioos:station:LUMCON:102:1,2011-02-01T03:00:00Z,29.1870,-90.6093,0.0,5.1,130.0,6.7,'11111222,11111222,11111222' 
LUMCON,ioos:station:LUMCON:102:1,2011-02-01T04:00:00Z,29.1870,-90.6093,0.0,4.6,110.0,6.7,'11111222,11111222,11111222' 
LUMCON,ioos:station:LUMCON:102:1,2011-02-01T05:00:00Z,29.1870,-90.6093,0.0,4.6,110.0,6.7,'11111222,11111222,11111222' 
LUMCON,ioos:station:LUMCON:102:1,2011-02-01T06:00:00Z,29.1870,-90.6093,0.0,4.6,100.0,6.2,'11111222,11111222,11111222' 
LUMCON,ioos:station:LUMCON:102:1,2011-02-01T07:00:00Z,29.1870,-90.6093,0.0,4.6,110.0,6.7,'11111222,11111222,11111222' 
LUMCON,ioos:station:LUMCON:102:1,2011-02-01T08:00:00Z,29.1870,-90.6093,0.0,4.6,110.0,6.2,'11111222,11111222,11111222' 
LUMCON,ioos:station:LUMCON:102:1,2011-02-01T09:00:00Z,29.1870,-90.6093,0.0,5.1,110.0,6.7,'11111222,11111222,11111222' 
LUMCON,ioos:station:LUMCON:102:1,2011-02-01T10:00:00Z,29.1870,-90.6093,0.0,5.1,120.0,7.2,'11111222,11111222,11111222' 
LUMCON,ioos:station:LUMCON:102:1,2011-02-01T11:00:00Z,29.1870,-90.6093,0.0,6.2,130.0,7.7,'11111222,11111222,11111222' 
LUMCON,ioos:station:LUMCON:102:1,2011-02-01T12:00:00Z,29.1870,-90.6093,0.0,5.7,130.0,7.7,'11111222,11111222,11111222' 
LUMCON,ioos:station:LUMCON:102:1,2011-02-01T13:00:00Z,29.1870,-90.6093,0.0,4.1,120.0,6.2,'11111222,11111222,11111222' 
LUMCON,ioos:station:LUMCON:102:1,2011-02-01T14:00:00Z,29.1870,-90.6093,0.0,5.7,130.0,7.2,'11111222,11111222,11111222' 
LUMCON,ioos:station:LUMCON:102:1,2011-02-01T15:00:00Z,29.1870,-90.6093,0.0,6.2,130.0,7.7,'11111222,11111222,11111222' 
LUMCON,ioos:station:LUMCON:102:1,2011-02-01T16:00:00Z,29.1870,-90.6093,0.0,6.2,150.0,8.2,'11111222,11111222,11111222' 
LUMCON,ioos:station:LUMCON:102:1,2011-02-01T17:00:00Z,29.1870,-90.6093,0.0,8.2,170.0,9.8,'11111222,11111222,11111222' 
LUMCON,ioos:station:LUMCON:102:1,2011-02-01T18:00:00Z,29.1870,-90.6093,0.0,9.3,180.0,9.8,'11111222,11111222,11111222' 
LUMCON,ioos:station:LUMCON:102:1,2011-02-01T19:00:00Z,29.1870,-90.6093,0.0,8.8,190.0,8.8,'11111222,11111222,11111222' 
LUMCON,ioos:station:LUMCON:102:1,2011-02-01T20:00:00Z,29.1870,-90.6093,0.0,10.3,200.0,99.0,'11111222,11111222,11144222' 
LUMCON,ioos:station:LUMCON:102:1,2011-02-01T21:00:00Z,29.1870,-90.6093,0.0,6.7,280.0,9.8,'11111222,11111222,11111222' 
LUMCON,ioos:station:LUMCON:102:1,2011-02-01T22:00:00Z,29.1870,-90.6093,0.0,8.8,280.0,9.3,'11111222,11111222,11111222' 
LUMCON,ioos:station:LUMCON:102:1,2011-02-01T23:00:00Z,29.1870,-90.6093,0.0,9.8,290.0,9.8,'11111222,11111222,11111222' 
LUMCON,ioos:station:LUMCON:102:1,2011-02-02T00:00:00Z,29.1870,-90.6093,0.0,8.2,290.0,8.2,'11111222,11111222,11111222' 
LUMCON,ioos:station:LUMCON:102:1,2011-02-02T01:00:00Z,29.1870,-90.6093,0.0,8.2,310.0,9.8,'11111222,11111222,11111222' 
LUMCON,ioos:station:LUMCON:102:1,2011-02-02T02:00:00Z,29.1870,-90.6093,0.0,7.7,310.0,9.8,'11111222,11111222,11111222' 
LUMCON,ioos:station:LUMCON:102:1,2011-02-02T03:00:00Z,29.1870,-90.6093,0.0,8.2,320.0,9.8,'11111222,11111222,11111222' 
LUMCON,ioos:station:LUMCON:102:1,2011-02-02T04:00:00Z,29.1870,-90.6093,0.0,7.7,330.0,9.8,'11111222,11111222,11111222' 
LUMCON,ioos:station:LUMCON:102:1,2011-02-02T05:00:00Z,29.1870,-90.6093,0.0,10.3,320.0,99.0,'11111222,11111222,11144222' 
LUMCON,ioos:station:LUMCON:102:1,2011-02-02T06:00:00Z,29.1870,-90.6093,0.0,10.3,340.0,99.0,'11111222,11111222,11144222' 
LUMCON,ioos:station:LUMCON:102:1,2011-02-02T07:00:00Z,29.1870,-90.6093,0.0,9.8,330.0,99.0,'11111222,11111222,11144222' 
LUMCON,ioos:station:LUMCON:102:1,2011-02-02T08:00:00Z,29.1870,-90.6093,0.0,9.8,350.0,9.8,'11111222,11111222,11111222' 
LUMCON,ioos:station:LUMCON:102:1,2011-02-02T09:00:00Z,29.1870,-90.6093,0.0,8.8,10.0,9.8,'11111222,11111222,11111222' 
LUMCON,ioos:station:LUMCON:102:1,2011-02-02T10:00:00Z,29.1870,-90.6093,0.0,9.3,10.0,9.8,'11111222,11111222,11111222' 
LUMCON,ioos:station:LUMCON:102:1,2011-02-02T11:00:00Z,29.1870,-90.6093,0.0,10.3,350.0,99.0,'11111222,11111222,11144222' 
LUMCON,ioos:station:LUMCON:102:1,2011-02-02T12:00:00Z,29.1870,-90.6093,0.0,9.3,330.0,9.8,'11111222,11111222,11111222' 
LUMCON,ioos:station:LUMCON:102:1,2011-02-02T13:00:00Z,29.1870,-90.6093,0.0,10.3,350.0,99.0,'11111222,11111222,11144222' 
LUMCON,ioos:station:LUMCON:102:1,2011-02-02T14:00:00Z,29.1870,-90.6093,0.0,10.8,330.0,13.4,'11111222,11111222,11111222' 
LUMCON,ioos:station:LUMCON:102:1,2011-02-02T15:00:00Z,29.1870,-90.6093,0.0,9.3,0.0,9.8,'11111222,11111222,11111222' 
LUMCON,ioos:station:LUMCON:102:1,2011-02-02T16:00:00Z,29.1870,-90.6093,0.0,7.2,360.0,9.8,'11111222,11144222,11111222' 
LUMCON,ioos:station:LUMCON:102:1,2011-02-02T17:00:00Z,29.1870,-90.6093,0.0,7.7,330.0,9.8,'11111222,11111222,11111222' 
LUMCON,ioos:station:LUMCON:102:1,2011-02-02T18:00:00Z,29.1870,-90.6093,0.0,7.7,10.0,9.8,'11111222,11111222,11111222' 
LUMCON,ioos:station:LUMCON:102:1,2011-02-02T19:00:00Z,29.1870,-90.6093,0.0,7.2,10.0,9.8,'11111222,11111222,11111222' 
LUMCON,ioos:station:LUMCON:102:1,2011-02-02T20:00:00Z,29.1870,-90.6093,0.0,8.8,10.0,9.8,'11111222,11111222,11111222' 
LUMCON,ioos:station:LUMCON:102:1,2011-02-02T21:00:00Z,29.1870,-90.6093,0.0,9.3,10.0,9.8,'11111222,11111222,11111222' 
LUMCON,ioos:station:LUMCON:102:1,2011-02-02T22:00:00Z,29.1870,-90.6093,0.0,9.3,20.0,9.8,'11111222,11111222,11111222' 
LUMCON,ioos:station:LUMCON:102:1,2011-02-02T23:00:00Z,29.1870,-90.6093,0.0,9.3,10.0,9.8,'11111222,11111222,11111222' 
LUMCON,ioos:station:LUMCON:102:1,2011-02-03T00:00:00Z,29.1870,-90.6093,0.0,10.8,20.0,99.0,'11111222,11111222,11144222' 
LUMCON,ioos:station:LUMCON:102:1,2011-02-03T01:00:00Z,29.1870,-90.6093,0.0,10.8,30.0,99.0,'11111222,11111222,11144222' 
LUMCON,ioos:station:LUMCON:102:1,2011-02-03T02:00:00Z,29.1870,-90.6093,0.0,8.8,30.0,9.3,'11111222,11111222,11111222' 
LUMCON,ioos:station:LUMCON:102:1,2011-02-03T03:00:00Z,29.1870,-90.6093,0.0,8.2,30.0,9.3,'11111222,11111222,11111222' 
LUMCON,ioos:station:LUMCON:102:1,2011-02-03T04:00:00Z,29.1870,-90.6093,0.0,8.8,40.0,9.8,'11111222,11111222,11111222' 
LUMCON,ioos:station:LUMCON:102:1,2011-02-03T05:00:00Z,29.1870,-90.6093,0.0,8.2,20.0,8.2,'11111222,11111222,11111222' 
LUMCON,ioos:station:LUMCON:102:1,2011-02-03T06:00:00Z,29.1870,-90.6093,0.0,7.2,10.0,9.8,'11111222,11111222,11111222' 
LUMCON,ioos:station:LUMCON:102:1,2011-02-03T07:00:00Z,29.1870,-90.6093,0.0,8.2,20.0,9.8,'11111222,11111222,11111222' 
LUMCON,ioos:station:LUMCON:102:1,2011-02-03T08:00:00Z,29.1870,-90.6093,0.0,7.7,30.0,9.8,'11111222,11111222,11111222' 
LUMCON,ioos:station:LUMCON:102:1,2011-02-03T09:00:00Z,29.1870,-90.6093,0.0,6.7,20.0,9.3,'11111222,11111222,11111222' 
LUMCON,ioos:station:LUMCON:102:1,2011-02-03T10:00:00Z,29.1870,-90.6093,0.0,7.2,50.0,9.8,'11111222,11111222,11111222' 
LUMCON,ioos:station:LUMCON:102:1,2011-02-03T11:00:00Z,29.1870,-90.6093,0.0,6.2,20.0,9.8,'11111222,11111222,11111222' 
LUMCON,ioos:station:LUMCON:102:1,2011-02-03T12:00:00Z,29.1870,-90.6093,0.0,6.7,350.0,9.8,'11111222,11111222,11111222' 
LUMCON,ioos:station:LUMCON:102:1,2011-02-03T13:00:00Z,29.1870,-90.6093,0.0,6.2,20.0,7.7,'11111222,11111222,11111222' 
LUMCON,ioos:station:LUMCON:102:1,2011-02-03T14:00:00Z,29.1870,-90.6093,0.0,6.2,30.0,8.8,'11111222,11111222,11111222' 
LUMCON,ioos:station:LUMCON:102:1,2011-02-03T15:00:00Z,29.1870,-90.6093,0.0,6.2,60.0,9.3,'11111222,11111222,11111222' 
LUMCON,ioos:station:LUMCON:102:1,2011-02-03T16:00:00Z,29.1870,-90.6093,0.0,6.7,20.0,9.8,'11111222,11111222,11111222' 
LUMCON,ioos:station:LUMCON:102:1,2011-02-03T17:00:00Z,29.1870,-90.6093,0.0,7.7,30.0,9.8,'11111222,11111222,11111222' 
LUMCON,ioos:station:LUMCON:102:1,2011-02-03T18:00:00Z,29.1870,-90.6093,0.0,7.2,10.0,9.3,'11111222,11111222,11111222' 
LUMCON,ioos:station:LUMCON:102:1,2011-02-03T19:00:00Z,29.1870,-90.6093,0.0,7.7,10.0,9.3,'11111222,11111222,11111222' 
LUMCON,ioos:station:LUMCON:102:1,2011-02-03T20:00:00Z,29.1870,-90.6093,0.0,8.2,20.0,9.8,'11111222,11111222,11111222' 
LUMCON,ioos:station:LUMCON:102:1,2011-02-03T21:00:00Z,29.1870,-90.6093,0.0,8.8,20.0,9.8,'11111222,11111222,11111222' 
LUMCON,ioos:station:LUMCON:102:1,2011-02-03T22:00:00Z,29.1870,-90.6093,0.0,8.2,30.0,8.8,'11111222,11111222,11111222' 
LUMCON,ioos:station:LUMCON:102:1,2011-02-03T23:00:00Z,29.1870,-90.6093,0.0,7.2,40.0,8.2,'11111222,11111222,11111222' 
LUMCON,ioos:station:LUMCON:102:1,2011-02-04T00:00:00Z,29.1870,-90.6093,0.0,6.7,30.0,9.8,'11111222,11111222,11111222' 
LUMCON,ioos:station:LUMCON:102:1,2011-02-04T01:00:00Z,29.1870,-90.6093,0.0,6.7,30.0,9.8,'11111222,11111222,11111222' 
LUMCON,ioos:station:LUMCON:102:1,2011-02-04T02:00:00Z,29.1870,-90.6093,0.0,6.2,40.0,9.3,'11111222,11111222,11111222' 
LUMCON,ioos:station:LUMCON:102:1,2011-02-04T03:00:00Z,29.1870,-90.6093,0.0,6.7,40.0,9.8,'11111222,11111222,11111222' 
LUMCON,ioos:station:LUMCON:102:1,2011-02-04T04:00:00Z,29.1870,-90.6093,0.0,7.2,60.0,9.8,'11111222,11111222,11111222' 
LUMCON,ioos:station:LUMCON:102:1,2011-02-04T05:00:00Z,29.1870,-90.6093,0.0,6.7,40.0,9.8,'11111222,11111222,11111222' 
LUMCON,ioos:station:LUMCON:102:1,2011-02-04T06:00:00Z,29.1870,-90.6093,0.0,7.2,60.0,9.8,'11111222,11111222,11111222' 
LUMCON,ioos:station:LUMCON:102:1,2011-02-04T07:00:00Z,29.1870,-90.6093,0.0,7.7,40.0,9.8,'11111222,11111222,11111222' 
LUMCON,ioos:station:LUMCON:102:1,2011-02-04T08:00:00Z,29.1870,-90.6093,0.0,6.2,40.0,9.3,'11111222,11111222,11111222' 
LUMCON,ioos:station:LUMCON:102:1,2011-02-04T09:00:00Z,29.1870,-90.6093,0.0,7.2,60.0,9.3,'11111222,11111222,11111222' 
LUMCON,ioos:station:LUMCON:102:1,2011-02-04T10:00:00Z,29.1870,-90.6093,0.0,7.2,50.0,9.8,'11111222,11111222,11111222' 
LUMCON,ioos:station:LUMCON:102:1,2011-02-04T11:00:00Z,29.1870,-90.6093,0.0,5.7,10.0,7.7,'11111222,11111222,11111222' 
LUMCON,ioos:station:LUMCON:102:1,2011-02-04T12:00:00Z,29.1870,-90.6093,0.0,8.2,20.0,9.8,'11111222,11111222,11111222' 
LUMCON,ioos:station:LUMCON:102:1,2011-02-04T13:00:00Z,29.1870,-90.6093,0.0,8.8,360.0,9.8,'11111222,11144222,11111222' 
LUMCON,ioos:station:LUMCON:102:1,2011-02-04T14:00:00Z,29.1870,-90.6093,0.0,9.3,10.0,9.8,'11111222,11111222,11111222' 
LUMCON,ioos:station:LUMCON:102:1,2011-02-04T15:00:00Z,29.1870,-90.6093,0.0,8.2,10.0,9.8,'11111222,11111222,11111222' 
LUMCON,ioos:station:LUMCON:102:1,2011-02-04T16:00:00Z,29.1870,-90.6093,0.0,7.2,360.0,9.8,'11111222,11144222,11111222' 
LUMCON,ioos:station:LUMCON:102:1,2011-02-04T18:00:00Z,29.1870,-90.6093,0.0,6.2,330.0,9.3,'11111222,11111222,11111222' 
LUMCON,ioos:station:LUMCON:102:1,2011-02-04T19:00:00Z,29.1870,-90.6093,0.0,6.2,330.0,8.8,'11111222,11111222,11111222' 
LUMCON,ioos:station:LUMCON:102:1,2011-02-04T20:00:00Z,29.1870,-90.6093,0.0,5.7,330.0,7.7,'11111222,11111222,11111222' 
LUMCON,ioos:station:LUMCON:102:1,2011-02-04T21:00:00Z,29.1870,-90.6093,0.0,6.2,320.0,8.2,'11111222,11111222,11111222' 
LUMCON,ioos:station:LUMCON:102:1,2011-02-04T22:00:00Z,29.1870,-90.6093,0.0,6.2,310.0,7.7,'11111222,11111222,11111222' 
LUMCON,ioos:station:LUMCON:102:1,2011-02-04T23:00:00Z,29.1870,-90.6093,0.0,3.1,330.0,4.6,'11111222,11111222,11111222' 
LUMCON,ioos:station:LUMCON:102:1,2011-02-05T01:00:00Z,29.1870,-90.6093,0.0,6.2,290.0,8.8,'11111222,11111222,11111222' 
LUMCON,ioos:station:LUMCON:102:1,2011-02-05T02:00:00Z,29.1870,-90.6093,0.0,7.2,300.0,9.8,'11111222,11111222,11111222' 
LUMCON,ioos:station:LUMCON:102:1,2011-02-05T04:00:00Z,29.1870,-90.6093,0.0,8.2,290.0,9.8,'11111222,11111222,11111222' 
LUMCON,ioos:station:LUMCON:102:1,2011-02-05T05:00:00Z,29.1870,-90.6093,0.0,9.8,300.0,99.0,'11111222,11111222,11144222' 
LUMCON,ioos:station:LUMCON:102:1,2011-02-05T06:00:00Z,29.1870,-90.6093,0.0,9.3,300.0,9.8,'11111222,11111222,11111222' 
LUMCON,ioos:station:LUMCON:102:1,2011-02-05T07:00:00Z,29.1870,-90.6093,0.0,9.8,300.0,9.8,'11111222,11111222,11111222' 
LUMCON,ioos:station:LUMCON:102:1,2011-02-05T08:00:00Z,29.1870,-90.6093,0.0,9.8,300.0,9.8,'11111222,11111222,11111222' 
LUMCON,ioos:station:LUMCON:102:1,2011-02-05T09:00:00Z,29.1870,-90.6093,0.0,9.8,310.0,9.8,'11111222,11111222,11111222' 
LUMCON,ioos:station:LUMCON:102:1,2011-02-05T10:00:00Z,29.1870,-90.6093,0.0,9.8,300.0,9.8,'11111222,11111222,11111222' 
LUMCON,ioos:station:LUMCON:102:1,2011-02-05T11:00:00Z,29.1870,-90.6093,0.0,9.3,310.0,9.8,'11111222,11111222,11111222' 
LUMCON,ioos:station:LUMCON:102:1,2011-02-05T12:00:00Z,29.1870,-90.6093,0.0,10.3,320.0,99.0,'11111222,11111222,11144222' 
LUMCON,ioos:station:LUMCON:102:1,2011-02-05T13:00:00Z,29.1870,-90.6093,0.0,7.7,320.0,9.8,'11111222,11111222,11111222' 
LUMCON,ioos:station:LUMCON:102:1,2011-02-05T14:00:00Z,29.1870,-90.6093,0.0,7.2,320.0,9.8,'11111222,11111222,11111222' 
LUMCON,ioos:station:LUMCON:102:1,2011-02-05T15:00:00Z,29.1870,-90.6093,0.0,7.2,320.0,8.8,'11111222,11111222,11111222' 
LUMCON,ioos:station:LUMCON:102:1,2011-02-05T16:00:00Z,29.1870,-90.6093,0.0,6.7,320.0,8.2,'11111222,11111222,11111222' 
LUMCON,ioos:station:LUMCON:102:1,2011-02-05T17:00:00Z,29.1870,-90.6093,0.0,5.7,310.0,7.7,'11111222,11111222,11111222' 
LUMCON,ioos:station:LUMCON:102:1,2011-02-05T18:00:00Z,29.1870,-90.6093,0.0,4.6,290.0,6.7,'11111222,11111222,11111222' 
LUMCON,ioos:station:LUMCON:102:1,2011-02-05T20:00:00Z,29.1870,-90.6093,0.0,5.7,290.0,8.2,'11111222,11111222,11111222' 
LUMCON,ioos:station:LUMCON:102:1,2011-02-05T21:00:00Z,29.1870,-90.6093,0.0,5.7,280.0,7.7,'11111222,11111222,11111222' 
LUMCON,ioos:station:LUMCON:102:1,2011-02-05T22:00:00Z,29.1870,-90.6093,0.0,4.6,290.0,6.7,'11111222,11111222,11111222' 
LUMCON,ioos:station:LUMCON:102:1,2011-02-05T23:00:00Z,29.1870,-90.6093,0.0,5.1,270.0,7.2,'11111222,11111222,11111222' 
LUMCON,ioos:station:LUMCON:102:1,2011-02-06T00:00:00Z,29.1870,-90.6093,0.0,3.6,270.0,5.1,'11111222,11111222,11111222' 
LUMCON,ioos:station:LUMCON:102:1,2011-02-06T01:00:00Z,29.1870,-90.6093,0.0,2.1,270.0,3.1,'11111222,11111222,11111222' 
LUMCON,ioos:station:LUMCON:102:1,2011-02-06T02:00:00Z,29.1870,-90.6093,0.0,1.0,300.0,1.5,'11111222,11111222,11111222' 
LUMCON,ioos:station:LUMCON:102:1,2011-02-06T03:00:00Z,29.1870,-90.6093,0.0,0.0,260.0,0.5,'11111222,11111222,11111222' 
LUMCON,ioos:station:LUMCON:102:1,2011-02-06T04:00:00Z,29.1870,-90.6093,0.0,2.1,160.0,3.1,'11111222,11111222,11111222' 
LUMCON,ioos:station:LUMCON:102:1,2011-02-06T05:00:00Z,29.1870,-90.6093,0.0,2.6,150.0,3.6,'11111222,11111222,11111222' 
LUMCON,ioos:station:LUMCON:102:1,2011-02-06T06:00:00Z,29.1870,-90.6093,0.0,2.6,140.0,3.1,'11111222,11111222,11111222' 
LUMCON,ioos:station:LUMCON:102:1,2011-02-06T07:00:00Z,29.1870,-90.6093,0.0,2.6,110.0,3.1,'11111222,11111222,11111222' 
LUMCON,ioos:station:LUMCON:102:1,2011-02-06T08:00:00Z,29.1870,-90.6093,0.0,2.6,100.0,3.6,'11111222,11111222,11111222' 
LUMCON,ioos:station:LUMCON:102:1,2011-02-06T09:00:00Z,29.1870,-90.6093,0.0,3.1,120.0,3.6,'11111222,11111222,11111222' 
LUMCON,ioos:station:LUMCON:102:1,2011-02-06T10:00:00Z,29.1870,-90.6093,0.0,3.6,110.0,4.6,'11111222,11111222,11111222' 
LUMCON,ioos:station:LUMCON:102:1,2011-02-06T11:00:00Z,29.1870,-90.6093,0.0,3.1,90.0,4.1,'11111222,11111222,11111222' 
LUMCON,ioos:station:LUMCON:102:1,2011-02-06T12:00:00Z,29.1870,-90.6093,0.0,3.6,80.0,4.1,'11111222,11111222,11111222' 
LUMCON,ioos:station:LUMCON:102:1,2011-02-06T13:00:00Z,29.1870,-90.6093,0.0,3.6,100.0,4.6,'11111222,11111222,11111222' 
LUMCON,ioos:station:LUMCON:102:1,2011-02-06T14:00:00Z,29.1870,-90.6093,0.0,4.1,100.0,5.1,'11111222,11111222,11111222' 
LUMCON,ioos:station:LUMCON:102:1,2011-02-06T15:00:00Z,29.1870,-90.6093,0.0,3.6,90.0,4.6,'11111222,11111222,11111222' 
LUMCON,ioos:station:LUMCON:102:1,2011-02-06T16:00:00Z,29.1870,-90.6093,0.0,4.1,100.0,5.1,'11111222,11111222,11111222' 
LUMCON,ioos:station:LUMCON:102:1,2011-02-06T18:00:00Z,29.1870,-90.6093,0.0,6.2,120.0,8.2,'11111222,11111222,11111222' 
LUMCON,ioos:station:LUMCON:102:1,2011-02-07T16:00:00Z,29.1870,-90.6093,0.0,9.8,300.0,12.4,'11111222,11111222,11111222' 
LUMCON,ioos:station:LUMCON:102:1,2011-02-07T17:00:00Z,29.1870,-90.6093,0.0,10.8,310.0,99.0,'11111222,11111222,11144222' 
LUMCON,ioos:station:LUMCON:102:1,2011-02-07T18:00:00Z,29.1870,-90.6093,0.0,11.8,310.0,14.9,'11111222,11111222,11111222' 
LUMCON,ioos:station:LUMCON:102:1,2011-02-07T19:00:00Z,29.1870,-90.6093,0.0,11.3,320.0,15.4,'11111222,11111222,11111222' 
LUMCON,ioos:station:LUMCON:102:1,2011-02-07T20:00:00Z,29.1870,-90.6093,0.0,10.8,320.0,99.0,'11111222,11111222,11144222' 
LUMCON,ioos:station:LUMCON:102:1,2011-02-07T21:00:00Z,29.1870,-90.6093,0.0,9.8,320.0,99.0,'11111222,11111222,11144222' 
LUMCON,ioos:station:LUMCON:102:1,2011-02-07T22:00:00Z,29.1870,-90.6093,0.0,10.8,320.0,13.4,'11111222,11111222,11111222' 
LUMCON,ioos:station:LUMCON:102:1,2011-02-07T23:00:00Z,29.1870,-90.6093,0.0,10.3,340.0,99.0,'11111222,11111222,11144222' 
LUMCON,ioos:station:LUMCON:102:1,2011-02-08T00:00:00Z,29.1870,-90.6093,0.0,8.2,330.0,9.8,'11111222,11111222,11111222' 
LUMCON,ioos:station:LUMCON:102:1,2011-02-08T01:00:00Z,29.1870,-90.6093,0.0,7.2,340.0,9.3,'11111222,11111222,11111222' 
LUMCON,ioos:station:LUMCON:102:1,2011-02-08T21:00:00Z,29.1870,-90.6093,0.0,3.6,110.0,5.7,'11111222,11111222,11111222' 
LUMCON,ioos:station:LUMCON:102:1,2011-02-08T22:00:00Z,29.1870,-90.6093,0.0,5.1,120.0,7.2,'11111222,11111222,11111222' 
LUMCON,ioos:station:LUMCON:102:1,2011-02-08T23:00:00Z,29.1870,-90.6093,0.0,5.7,100.0,8.2,'11111222,11111222,11111222' 
LUMCON,ioos:station:LUMCON:102:1,2011-02-09T18:00:00Z,29.1870,-90.6093,0.0,5.7,100.0,8.2,'11111222,11111222,11111222' 
LUMCON,ioos:station:LUMCON:102:1,2011-02-09T19:00:00Z,29.1870,-90.6093,0.0,5.1,120.0,7.7,'11111222,11111222,11111222' 
LUMCON,ioos:station:LUMCON:102:1,2011-02-09T20:00:00Z,29.1870,-90.6093,0.0,6.2,130.0,8.2,'11111222,11111222,11111222' 
LUMCON,ioos:station:LUMCON:102:1,2011-02-09T21:00:00Z,29.1870,-90.6093,0.0,6.7,140.0,8.8,'11111222,11111222,11111222' 
LUMCON,ioos:station:LUMCON:102:1,2011-02-09T22:00:00Z,29.1870,-90.6093,0.0,5.7,150.0,8.2,'11111222,11111222,11111222' 
LUMCON,ioos:station:LUMCON:102:1,2011-02-09T23:00:00Z,29.1870,-90.6093,0.0,5.1,150.0,7.2,'11111222,11111222,11111222' 
LUMCON,ioos:station:LUMCON:102:1,2011-02-10T00:00:00Z,29.1870,-90.6093,0.0,5.1,250.0,9.3,'11111222,11111222,11111222' 
LUMCON,ioos:station:LUMCON:102:1,2011-02-10T01:00:00Z,29.1870,-90.6093,0.0,9.8,320.0,9.8,'11111222,11111222,11111222' 
LUMCON,ioos:station:LUMCON:102:1,2011-02-10T02:00:00Z,29.1870,-90.6093,0.0,12.9,350.0,17.0,'11111222,11111222,11111222' 
LUMCON,ioos:station:LUMCON:102:1,2011-02-10T03:00:00Z,29.1870,-90.6093,0.0,10.8,0.0,99.0,'11111222,11111222,11144222' 
LUMCON,ioos:station:LUMCON:102:1,2011-02-10T04:00:00Z,29.1870,-90.6093,0.0,9.3,360.0,9.3,'11111222,11144222,11111222' 
LUMCON,ioos:station:LUMCON:102:1,2011-02-10T05:00:00Z,29.1870,-90.6093,0.0,8.2,360.0,8.8,'11111222,11144222,11111222' 
LUMCON,ioos:station:LUMCON:102:1,2011-02-10T06:00:00Z,29.1870,-90.6093,0.0,8.8,330.0,9.8,'11111222,11111222,11111222' 
LUMCON,ioos:station:LUMCON:102:1,2011-02-10T07:00:00Z,29.1870,-90.6093,0.0,8.8,330.0,9.8,'11111222,11111222,11111222' 
LUMCON,ioos:station:LUMCON:102:1,2011-02-10T08:00:00Z,29.1870,-90.6093,0.0,9.3,350.0,9.8,'11111222,11111222,11111222' 
LUMCON,ioos:station:LUMCON:102:1,2011-02-10T09:00:00Z,29.1870,-90.6093,0.0,9.8,340.0,99.0,'11111222,11111222,11144222' 
LUMCON,ioos:station:LUMCON:102:1,2011-02-10T10:00:00Z,29.1870,-90.6093,0.0,9.3,0.0,9.8,'11111222,11111222,11111222' 
LUMCON,ioos:station:LUMCON:102:1,2011-02-10T11:00:00Z,29.1870,-90.6093,0.0,9.3,350.0,9.8,'11111222,11111222,11111222' 
LUMCON,ioos:station:LUMCON:102:1,2011-02-10T12:00:00Z,29.1870,-90.6093,0.0,8.8,10.0,9.3,'11111222,11111222,11111222' 
LUMCON,ioos:station:LUMCON:102:1,2011-02-10T13:00:00Z,29.1870,-90.6093,0.0,9.3,20.0,9.3,'11111222,11111222,11111222' 
LUMCON,ioos:station:LUMCON:102:1,2011-02-10T14:00:00Z,29.1870,-90.6093,0.0,9.3,10.0,9.8,'11111222,11111222,11111222' 
LUMCON,ioos:station:LUMCON:102:1,2011-02-10T15:00:00Z,29.1870,-90.6093,0.0,9.8,20.0,9.8,'11111222,11111222,11111222' 
LUMCON,ioos:station:LUMCON:102:1,2011-02-10T16:00:00Z,29.1870,-90.6093,0.0,8.2,20.0,9.8,'11111222,11111222,11111222' 
LUMCON,ioos:station:LUMCON:102:1,2011-02-10T17:00:00Z,29.1870,-90.6093,0.0,8.2,20.0,9.8,'11111222,11111222,11111222' 
LUMCON,ioos:station:LUMCON:102:1,2011-02-10T18:00:00Z,29.1870,-90.6093,0.0,7.7,20.0,9.8,'11111222,11111222,11111222' 
LUMCON,ioos:station:LUMCON:102:1,2011-02-10T19:00:00Z,29.1870,-90.6093,0.0,6.2,60.0,8.2,'11111222,11111222,11111222' 
LUMCON,ioos:station:LUMCON:102:1,2011-02-10T20:00:00Z,29.1870,-90.6093,0.0,5.7,10.0,8.8,'11111222,11111222,11111222' 
LUMCON,ioos:station:LUMCON:102:1,2011-02-10T21:00:00Z,29.1870,-90.6093,0.0,6.2,350.0,9.3,'11111222,11111222,11111222' 
LUMCON,ioos:station:LUMCON:102:1,2011-02-10T22:00:00Z,29.1870,-90.6093,0.0,5.7,10.0,7.2,'11111222,11111222,11111222' 
LUMCON,ioos:station:LUMCON:102:1,2011-02-10T23:00:00Z,29.1870,-90.6093,0.0,5.7,20.0,7.2,'11111222,11111222,11111222' 
LUMCON,ioos:station:LUMCON:102:1,2011-02-11T00:00:00Z,29.1870,-90.6093,0.0,3.6,20.0,6.7,'11111222,11111222,11111222' 
LUMCON,ioos:station:LUMCON:102:1,2011-02-11T01:00:00Z,29.1870,-90.6093,0.0,2.6,30.0,4.6,'11111222,11111222,11111222' 
LUMCON,ioos:station:LUMCON:102:1,2011-02-11T02:00:00Z,29.1870,-90.6093,0.0,2.1,10.0,3.6,'11111222,11111222,11111222' 
LUMCON,ioos:station:LUMCON:102:1,2011-02-11T03:00:00Z,29.1870,-90.6093,0.0,2.6,330.0,3.6,'11111222,11111222,11111222' 
LUMCON,ioos:station:LUMCON:102:1,2011-02-11T04:00:00Z,29.1870,-90.6093,0.0,3.6,360.0,5.1,'11111222,11144222,11111222' 
LUMCON,ioos:station:LUMCON:102:1,2011-02-11T05:00:00Z,29.1870,-90.6093,0.0,5.1,20.0,7.7,'11111222,11111222,11111222' 
LUMCON,ioos:station:LUMCON:102:1,2011-02-11T06:00:00Z,29.1870,-90.6093,0.0,5.1,30.0,8.2,'11111222,11111222,11111222' 
LUMCON,ioos:station:LUMCON:102:1,2011-02-11T07:00:00Z,29.1870,-90.6093,0.0,5.7,20.0,8.2,'11111222,11111222,11111222' 
LUMCON,ioos:station:LUMCON:102:1,2011-02-11T08:00:00Z,29.1870,-90.6093,0.0,5.7,20.0,8.2,'11111222,11111222,11111222' 
LUMCON,ioos:station:LUMCON:102:1,2011-02-11T09:00:00Z,29.1870,-90.6093,0.0,5.7,30.0,7.7,'11111222,11111222,11111222' 
LUMCON,ioos:station:LUMCON:102:1,2011-02-11T10:00:00Z,29.1870,-90.6093,0.0,5.1,10.0,7.7,'11111222,11111222,11111222' 
LUMCON,ioos:station:LUMCON:102:1,2011-02-11T11:00:00Z,29.1870,-90.6093,0.0,5.1,360.0,7.7,'11111222,11144222,11111222' 
LUMCON,ioos:station:LUMCON:102:1,2011-02-11T12:00:00Z,29.1870,-90.6093,0.0,4.6,0.0,6.7,'11111222,11111222,11111222' 
LUMCON,ioos:station:LUMCON:102:1,2011-02-11T13:00:00Z,29.1870,-90.6093,0.0,4.6,310.0,7.2,'11111222,11111222,11111222' 
LUMCON,ioos:station:LUMCON:102:1,2011-02-11T14:00:00Z,29.1870,-90.6093,0.0,5.1,20.0,7.2,'11111222,11111222,11111222' 
LUMCON,ioos:station:LUMCON:102:1,2011-02-11T15:00:00Z,29.1870,-90.6093,0.0,5.7,20.0,7.2,'11111222,11111222,11111222' 
LUMCON,ioos:station:LUMCON:102:1,2011-02-11T16:00:00Z,29.1870,-90.6093,0.0,4.6,360.0,6.7,'11111222,11144222,11111222' 
LUMCON,ioos:station:LUMCON:102:1,2011-02-11T17:00:00Z,29.1870,-90.6093,0.0,4.6,20.0,6.2,'11111222,11111222,11111222' 
LUMCON,ioos:station:LUMCON:102:1,2011-02-11T18:00:00Z,29.1870,-90.6093,0.0,4.1,10.0,6.7,'11111222,11111222,11111222' 
LUMCON,ioos:station:LUMCON:102:1,2011-02-11T19:00:00Z,29.1870,-90.6093,0.0,3.6,20.0,6.2,'11111222,11111222,11111222' 
LUMCON,ioos:station:LUMCON:102:1,2011-02-11T20:00:00Z,29.1870,-90.6093,0.0,4.6,20.0,7.7,'11111222,11111222,11111222' 
LUMCON,ioos:station:LUMCON:102:1,2011-02-11T21:00:00Z,29.1870,-90.6093,0.0,4.6,350.0,6.2,'11111222,11111222,11111222' 
LUMCON,ioos:station:LUMCON:102:1,2011-02-11T22:00:00Z,29.1870,-90.6093,0.0,4.1,20.0,5.7,'11111222,11111222,11111222' 
LUMCON,ioos:station:LUMCON:102:1,2011-02-11T23:00:00Z,29.1870,-90.6093,0.0,2.6,10.0,4.1,'11111222,11111222,11111222' 